Time,TemperatureF,DewpointF,PressureIn,WindDirection,WindDirectionDegrees,WindSpeedMPH,WindSpeedGustMPH,Humidity,HourlyPrecipIn,Conditions,Clouds,dailyrainin,SolarRadiationWatts/m^2,SoftwareType,DateUTC
2013-12-09 00:00:00,16.7,15.0,30.03,NNW,327,6.0,7.0,92,0.00,,,0.00,0,weatherlink.com 1.10,2013-12-09 06:00:00,
2013-12-09 00:16:00,16.4,15.0,30.02,NNW,347,4.0,7.0,92,0.00,,,0.00,0,weatherlink.com 1.10,2013-12-09 06:16:00,
2013-12-09 00:31:00,16.4,15.0,30.01,NNW,336,4.0,7.0,93,0.00,,,0.00,0,weatherlink.com 1.10,2013-12-09 06:31:00,
2013-12-09 00:46:00,16.3,14.0,30.01,NNW,348,3.0,7.0,92,0.00,,,0.00,0,weatherlink.com 1.10,2013-12-09 06:46:00,
2013-12-09 01:01:00,16.1,14.0,30.01,NW,324,2.0,4.0,92,0.00,,,0.00,0,weatherlink.com 1.10,2013-12-09 07:01:00,
2013-12-09 01:16:00,15.9,14.0,30.00,NW,310,5.0,5.0,92,0.00,,,0.00,0,weatherlink.com 1.10,2013-12-09 07:16:00,
2013-12-09 01:31:00,15.7,14.0,30.00,NW,309,2.0,6.0,92,0.00,,,0.00,0,weatherlink.com 1.10,2013-12-09 07:31:00,
2013-12-09 01:46:00,15.7,14.0,30.00,NW,308,2.0,5.0,92,0.00,,,0.00,0,weatherlink.com 1.10,2013-12-09 07:46:00,
2013-12-09 02:01:00,15.6,14.0,30.00,WNW,289,2.0,5.0,92,0.00,,,0.00,0,weatherlink.com 1.10,2013-12-09 08:01:00,
2013-12-09 02:16:00,15.5,14.0,30.00,WNW,289,3.0,3.0,92,0.00,,,0.00,0,weatherlink.com 1.10,2013-12-09 08:16:00,
2013-12-09 02:31:00,15.3,13.0,30.01,WNW,283,3.0,6.0,92,0.00,,,0.00,0,weatherlink.com 1.10,2013-12-09 08:31:00,
2013-12-09 02:46:00,15.3,13.0,30.00,West,274,5.0,6.0,92,0.00,,,0.00,0,weatherlink.com 1.10,2013-12-09 08:46:00,
2013-12-09 03:01:00,14.5,12.0,30.00,WSW,255,6.0,8.0,91,0.00,,,0.00,0,weatherlink.com 1.10,2013-12-09 09:01:00,
2013-12-09 03:16:00,13.8,12.0,30.00,West,263,8.0,9.0,92,0.00,,,0.00,0,weatherlink.com 1.10,2013-12-09 09:16:00,
2013-12-09 03:31:00,13.5,11.0,30.00,West,261,5.0,7.0,91,0.00,,,0.00,0,weatherlink.com 1.10,2013-12-09 09:31:00,
2013-12-09 03:46:00,13.5,12.0,30.01,WSW,251,6.0,8.0,92,0.00,,,0.00,0,weatherlink.com 1.10,2013-12-09 09:46:00,
2013-12-09 04:01:00,13.5,11.0,30.01,WSW,250,7.0,9.0,91,0.00,,,0.00,0,weatherlink.com 1.10,2013-12-09 10:01:00,
2013-12-09 04:16:00,12.7,11.0,30.02,WSW,252,7.0,10.0,91,0.00,,,0.00,0,weatherlink.com 1.10,2013-12-09 10:16:00,
2013-12-09 04:31:00,12.2,10.0,30.02,WSW,246,5.0,9.0,91,0.00,,,0.00,0,weatherlink.com 1.10,2013-12-09 10:31:00,
2013-12-09 04:46:00,11.1,9.0,30.02,WSW,248,6.0,9.0,90,0.00,,,0.00,0,weatherlink.com 1.10,2013-12-09 10:46:00,
2013-12-09 05:01:00,10.1,8.0,30.02,WSW,254,5.0,9.0,91,0.00,,,0.00,0,weatherlink.com 1.10,2013-12-09 11:01:00,
2013-12-09 05:16:00,8.9,7.0,30.01,WSW,254,7.0,8.0,90,0.00,,,0.00,0,weatherlink.com 1.10,2013-12-09 11:16:00,
2013-12-09 05:31:00,8.2,6.0,30.02,WSW,248,6.0,8.0,91,0.00,,,0.00,0,weatherlink.com 1.10,2013-12-09 11:31:00,
2013-12-09 05:46:00,8.3,6.0,30.02,WSW,253,7.0,10.0,91,0.00,,,0.00,0,weatherlink.com 1.10,2013-12-09 11:46:00,
2013-12-09 06:02:00,8.3,6.0,30.02,WSW,246,8.0,10.0,91,0.00,,,0.00,0,weatherlink.com 1.10,2013-12-09 12:02:00,
2013-12-09 06:17:00,8.2,6.0,30.02,WSW,250,8.0,11.0,90,0.00,,,0.00,0,weatherlink.com 1.10,2013-12-09 12:17:00,
2013-12-09 06:32:00,8.0,6.0,30.02,WSW,257,7.0,11.0,90,0.00,,,0.00,0,weatherlink.com 1.10,2013-12-09 12:32:00,
2013-12-09 06:47:00,7.3,5.0,30.03,WSW,248,6.0,8.0,90,0.00,,,0.00,0,weatherlink.com 1.10,2013-12-09 12:47:00,
2013-12-09 07:02:00,7.8,5.0,30.04,WSW,244,1.0,7.0,89,0.00,,,0.00,0,weatherlink.com 1.10,2013-12-09 13:02:00,
2013-12-09 07:17:00,7.2,5.0,30.06,WSW,244,1.0,3.0,90,0.00,,,0.00,0,weatherlink.com 1.10,2013-12-09 13:17:00,
2013-12-09 07:32:00,7.2,5.0,30.06,WSW,244,4.0,4.0,90,0.00,,,0.00,7,weatherlink.com 1.10,2013-12-09 13:32:00,
2013-12-09 07:47:00,6.8,5.0,30.07,WSW,243,4.0,7.0,91,0.00,,,0.00,9,weatherlink.com 1.10,2013-12-09 13:47:00,
2013-12-09 08:02:00,7.3,5.0,30.08,WSW,246,5.0,7.0,90,0.00,,,0.00,18,weatherlink.com 1.10,2013-12-09 14:02:00,
2013-12-09 08:17:00,7.9,6.0,30.08,WSW,245,7.0,10.0,90,0.00,,,0.00,23,weatherlink.com 1.10,2013-12-09 14:17:00,
2013-12-09 08:32:00,8.8,7.0,30.09,WSW,240,5.0,11.0,90,0.00,,,0.00,26,weatherlink.com 1.10,2013-12-09 14:32:00,
2013-12-09 08:47:00,9.1,7.0,30.09,WSW,246,8.0,10.0,90,0.00,,,0.00,28,weatherlink.com 1.10,2013-12-09 14:47:00,
2013-12-09 09:02:00,9.6,7.0,30.09,WSW,245,9.0,12.0,90,0.00,,,0.00,30,weatherlink.com 1.10,2013-12-09 15:02:00,
2013-12-09 09:17:00,10.3,8.0,30.09,WSW,248,10.0,14.0,90,0.00,,,0.00,33,weatherlink.com 1.10,2013-12-09 15:17:00,
2013-12-09 09:33:00,11.3,9.0,30.09,WSW,249,10.0,16.0,89,0.00,,,0.00,63,weatherlink.com 1.10,2013-12-09 15:33:00,
2013-12-09 09:48:00,11.6,9.0,30.10,WSW,254,13.0,16.0,89,0.00,,,0.00,46,weatherlink.com 1.10,2013-12-09 15:48:00,
2013-12-09 10:03:00,11.7,9.0,30.09,WSW,246,11.0,16.0,88,0.00,,,0.00,60,weatherlink.com 1.10,2013-12-09 16:03:00,
2013-12-09 10:18:00,12.0,9.0,30.09,SW,236,8.0,14.0,88,0.00,,,0.00,56,weatherlink.com 1.10,2013-12-09 16:18:00,
2013-12-09 10:33:00,12.4,9.0,30.09,WSW,246,12.0,14.0,86,0.00,,,0.00,116,weatherlink.com 1.10,2013-12-09 16:33:00,
2013-12-09 10:48:00,12.7,9.0,30.08,SW,232,10.0,16.0,86,0.00,,,0.00,81,weatherlink.com 1.10,2013-12-09 16:48:00,
2013-12-09 11:03:00,13.1,9.0,30.08,WSW,239,10.0,14.0,85,0.00,,,0.00,107,weatherlink.com 1.10,2013-12-09 17:03:00,
2013-12-09 11:18:00,13.6,10.0,30.08,WSW,241,13.0,16.0,84,0.00,,,0.00,139,weatherlink.com 1.10,2013-12-09 17:18:00,
2013-12-09 11:33:00,13.9,10.0,30.08,SSW,213,4.0,11.0,85,0.00,,,0.00,214,weatherlink.com 1.10,2013-12-09 17:33:00,
2013-12-09 11:48:00,14.4,11.0,30.07,SW,218,3.0,8.0,85,0.00,,,0.00,120,weatherlink.com 1.10,2013-12-09 17:48:00,
2013-12-09 12:03:00,14.5,11.0,30.07,SW,222,2.0,9.0,85,0.00,,,0.00,74,weatherlink.com 1.10,2013-12-09 18:03:00,
2013-12-09 12:18:00,14.6,10.0,30.05,SW,228,5.0,10.0,83,0.00,,,0.00,60,weatherlink.com 1.10,2013-12-09 18:18:00,
2013-12-09 12:33:00,14.9,11.0,30.06,SW,226,3.0,9.0,83,0.00,,,0.00,62,weatherlink.com 1.10,2013-12-09 18:33:00,
2013-12-09 12:48:00,14.8,10.0,30.07,SW,223,9.0,10.0,82,0.00,,,0.00,70,weatherlink.com 1.10,2013-12-09 18:48:00,
2013-12-09 13:04:00,15.0,10.0,30.07,WSW,242,10.0,12.0,81,0.00,,,0.00,151,weatherlink.com 1.10,2013-12-09 19:04:00,
2013-12-09 13:19:00,15.1,10.0,30.06,SW,226,5.0,17.0,80,0.00,,,0.00,81,weatherlink.com 1.10,2013-12-09 19:19:00,
2013-12-09 13:34:00,14.9,9.0,30.08,WSW,239,13.0,23.0,78,0.00,,,0.00,81,weatherlink.com 1.10,2013-12-09 19:34:00,
2013-12-09 13:49:00,14.8,9.0,30.08,SW,232,10.0,21.0,77,0.00,,,0.00,155,weatherlink.com 1.10,2013-12-09 19:49:00,
2013-12-09 14:04:00,14.6,9.0,30.08,WSW,244,15.0,24.0,78,0.00,,,0.00,79,weatherlink.com 1.10,2013-12-09 20:04:00,
2013-12-09 14:19:00,14.4,8.0,30.09,WSW,254,17.0,23.0,77,0.00,,,0.00,54,weatherlink.com 1.10,2013-12-09 20:19:00,
2013-12-09 14:34:00,13.1,6.0,30.09,WSW,252,15.0,28.0,73,0.00,,,0.00,33,weatherlink.com 1.10,2013-12-09 20:34:00,
2013-12-09 14:49:00,12.8,5.0,30.10,WSW,249,23.0,26.0,71,0.00,,,0.00,32,weatherlink.com 1.10,2013-12-09 20:49:00,
2013-12-09 15:04:00,12.2,4.0,30.11,WSW,248,19.0,27.0,70,0.00,,,0.00,28,weatherlink.com 1.10,2013-12-09 21:04:00,
2013-12-09 15:19:00,11.6,3.0,30.12,WSW,252,17.0,25.0,69,0.00,,,0.00,25,weatherlink.com 1.10,2013-12-09 21:19:00,
2013-12-09 15:34:00,10.8,3.0,30.14,WSW,250,22.0,23.0,69,0.00,,,0.00,21,weatherlink.com 1.10,2013-12-09 21:34:00,
2013-12-09 15:49:00,9.9,2.0,30.15,WSW,255,13.0,22.0,70,0.00,,,0.00,16,weatherlink.com 1.10,2013-12-09 21:49:00,
2013-12-09 16:04:00,9.3,1.0,30.16,West,260,12.0,21.0,69,0.00,,,0.00,11,weatherlink.com 1.10,2013-12-09 22:04:00,
2013-12-09 16:20:00,8.6,1.0,30.17,WSW,250,12.0,21.0,70,0.00,,,0.00,0,weatherlink.com 1.10,2013-12-09 22:20:00,
2013-12-09 16:35:00,7.8,0.0,30.18,WSW,248,17.0,17.0,70,0.00,,,0.00,0,weatherlink.com 1.10,2013-12-09 22:35:00,
2013-12-09 16:50:00,7.6,-1.0,30.19,WSW,237,13.0,20.0,69,0.00,,,0.00,0,weatherlink.com 1.10,2013-12-09 22:50:00,
2013-12-09 17:05:00,7.2,-1.0,30.20,SW,235,9.0,17.0,70,0.00,,,0.00,0,weatherlink.com 1.10,2013-12-09 23:05:00,
2013-12-09 17:20:00,6.6,-1.0,30.20,WSW,248,21.0,21.0,70,0.00,,,0.00,0,weatherlink.com 1.10,2013-12-09 23:20:00,
2013-12-09 17:35:00,6.0,-2.0,30.20,WSW,237,11.0,19.0,71,0.00,,,0.00,0,weatherlink.com 1.10,2013-12-09 23:35:00,
2013-12-09 17:50:00,5.6,-2.0,30.21,WSW,246,9.0,16.0,71,0.00,,,0.00,0,weatherlink.com 1.10,2013-12-09 23:50:00,
2013-12-09 18:05:00,5.2,-2.0,30.21,WSW,250,13.0,16.0,72,0.00,,,0.00,0,weatherlink.com 1.10,2013-12-10 00:05:00,
2013-12-09 18:20:00,4.7,-3.0,30.22,WSW,240,8.0,16.0,72,0.00,,,0.00,0,weatherlink.com 1.10,2013-12-10 00:20:00,
2013-12-09 18:35:00,4.1,-3.0,30.23,WSW,237,1.0,8.0,73,0.00,,,0.00,0,weatherlink.com 1.10,2013-12-10 00:35:00,
2013-12-09 18:50:00,3.5,-3.0,30.23,SW,234,3.0,8.0,73,0.00,,,0.00,0,weatherlink.com 1.10,2013-12-10 00:50:00,
2013-12-09 19:05:00,2.9,-4.0,30.23,WSW,240,1.0,6.0,73,0.00,,,0.00,0,weatherlink.com 1.10,2013-12-10 01:05:00,
2013-12-09 19:20:00,2.1,-4.0,30.23,SW,223,0.0,2.0,74,0.00,,,0.00,0,weatherlink.com 1.10,2013-12-10 01:20:00,
2013-12-09 19:35:00,1.5,-4.0,30.23,SW,228,1.0,2.0,77,0.00,,,0.00,0,weatherlink.com 1.10,2013-12-10 01:35:00,
2013-12-09 19:51:00,1.3,-4.0,30.25,WSW,244,3.0,10.0,77,0.00,,,0.00,0,weatherlink.com 1.10,2013-12-10 01:51:00,
2013-12-09 20:06:00,1.2,-4.0,30.24,SW,232,0.0,3.0,77,0.00,,,0.00,0,weatherlink.com 1.10,2013-12-10 02:06:00,
2013-12-09 20:21:00,0.9,-5.0,30.25,WSW,239,1.0,5.0,77,0.00,,,0.00,0,weatherlink.com 1.10,2013-12-10 02:21:00,
2013-12-09 20:36:00,0.1,-5.0,30.24,WSW,237,1.0,2.0,78,0.00,,,0.00,0,weatherlink.com 1.10,2013-12-10 02:36:00,
2013-12-09 20:51:00,0.0,-5.0,30.24,WSW,240,6.0,7.0,79,0.00,,,0.00,0,weatherlink.com 1.10,2013-12-10 02:51:00,
2013-12-09 21:06:00,-0.3,-5.0,30.24,WSW,238,3.0,6.0,79,0.00,,,0.00,0,weatherlink.com 1.10,2013-12-10 03:06:00,
2013-12-09 21:21:00,-0.7,-6.0,30.24,WSW,238,3.0,6.0,79,0.00,,,0.00,0,weatherlink.com 1.10,2013-12-10 03:21:00,
2013-12-09 21:36:00,-1.2,-6.0,30.23,WSW,238,5.0,5.0,80,0.00,,,0.00,0,weatherlink.com 1.10,2013-12-10 03:36:00,
2013-12-09 21:51:00,-1.4,-6.0,30.23,SW,236,1.0,3.0,80,0.00,,,0.00,0,weatherlink.com 1.10,2013-12-10 03:51:00,
2013-12-09 22:06:00,-1.6,-6.0,30.23,SW,234,1.0,3.0,80,0.00,,,0.00,0,weatherlink.com 1.10,2013-12-10 04:06:00,
2013-12-09 22:21:00,-1.8,-7.0,30.21,SW,217,0.0,3.0,80,0.00,,,0.00,0,weatherlink.com 1.10,2013-12-10 04:21:00,
2013-12-09 22:36:00,-2.1,-7.0,30.22,SW,217,1.0,2.0,81,0.00,,,0.00,0,weatherlink.com 1.10,2013-12-10 04:36:00,
2013-12-09 22:51:00,-2.3,-7.0,30.22,WSW,240,5.0,6.0,81,0.00,,,0.00,0,weatherlink.com 1.10,2013-12-10 04:51:00,
2013-12-09 23:07:00,-3.1,-8.0,30.22,WSW,238,5.0,6.0,81,0.00,,,0.00,0,weatherlink.com 1.10,2013-12-10 05:07:00,
2013-12-09 23:22:00,-3.0,-7.0,30.23,WSW,244,5.0,7.0,82,0.00,,,0.00,0,weatherlink.com 1.10,2013-12-10 05:22:00,
2013-12-09 23:37:00,-2.8,-7.0,30.23,WSW,239,2.0,6.0,82,0.00,,,0.00,0,weatherlink.com 1.10,2013-12-10 05:37:00,
2013-12-09 23:52:00,-2.9,-7.0,30.23,SSW,212,3.0,3.0,82,0.00,,,0.00,0,weatherlink.com 1.10,2013-12-10 05:52:00,